Change the Weather History Date:

Wednesday, October 29, 2014

  Actual Average Record
Temperature  
Mean Temperature 60 °F -  
Max Temperature 75 °F 68 °F 78 °F (1998)
Min Temperature 44 °F 40 °F 28 °F (2006)
Degree Days  
Heating Degree Days 6    
Growing Degree Days 10 (Base 50)    
Moisture  
Dew Point 46 °F    
Average Humidity 65    
Maximum Humidity 88    
Minimum Humidity 38    
Precipitation  
Precipitation 0.00 in - - ()
Sea Level Pressure  
Sea Level Pressure 30.25 in    
Wind  
Wind Speed 6 mph (NE)    
Max Wind Speed 14 mph    
Max Gust Speed -    
Visibility 10 miles    
Events      
Averages and records for this station are not official NWS values.
T = Trace of Precipitation, MM = Missing Value Source: NWS Daily Summary

Daily Weather History Graph

Daily Weather History Graph

Search for Another Location

Airport or City:

Trip Planner

Search our weather history database for the weather conditions in past years. The results will help you decide how hot, cold, wet, or windy it might be!

Date:

Astronomy

Oct. 29, 2014 Rise Set
Actual Time 8:08 AM CDT 7:10 PM CDT
Civil Twilight 7:43 AM CDT 7:35 PM CDT
Nautical Twilight 7:15 AM CDT 8:03 PM CDT
Astronomical Twilight 6:47 AM CDT 8:31 PM CDT
Moon 1:23 PM CDT (10/29) No Moon Set
Length of Visible Light 11h 52m
Length of Day
11h 02m
Waxing Crescent, 34% of the Moon is Illuminated
Oct 29
Waxing Crescent
Oct 30
First Quarter
Nov 6
Full
Nov 14
Last Quarter
Nov 22
New

Hourly Weather History & Observations

Time (CDT) Temp. Windchill Dew Point Humidity Pressure Visibility Wind Dir Wind Speed Gust Speed Precip Events Conditions
12:15 AM 50.0 °F - 39.2 °F 66% 30.26 in 10.0 mi WSW 4.6 mph - N/A   Clear
12:35 AM 48.2 °F - 39.2 °F 71% 30.26 in 10.0 mi WSW 3.5 mph - N/A   Clear
12:55 AM 48.2 °F - 39.2 °F 71% 30.26 in 10.0 mi Calm Calm - N/A   Clear
1:15 AM 46.4 °F 42.4 °F 39.2 °F 76% 30.26 in 10.0 mi NNW 8.1 mph - N/A   Clear
1:35 AM 46.4 °F 41.9 °F 39.2 °F 76% 30.25 in 10.0 mi North 9.2 mph - N/A   Clear
1:55 AM 46.4 °F 42.4 °F 39.2 °F 76% 30.25 in 10.0 mi North 8.1 mph - N/A   Clear
2:15 AM 46.4 °F 42.9 °F 39.2 °F 76% 30.25 in 10.0 mi North 6.9 mph - N/A   Clear
2:35 AM 48.2 °F - 39.2 °F 71% 30.25 in 10.0 mi North 6.9 mph - N/A   Clear
2:55 AM 46.4 °F 42.9 °F 39.2 °F 76% 30.25 in 10.0 mi North 6.9 mph - N/A   Clear
3:15 AM 46.4 °F 42.4 °F 39.2 °F 76% 30.25 in 10.0 mi North 8.1 mph - N/A   Clear
3:35 AM 46.4 °F 42.4 °F 39.2 °F 76% 30.24 in 10.0 mi North 8.1 mph - N/A   Clear
3:55 AM 48.2 °F - 39.2 °F 71% 30.24 in 10.0 mi North 6.9 mph - N/A   Clear
4:15 AM 48.2 °F - 37.4 °F 66% 30.24 in 10.0 mi NNE 8.1 mph - N/A   Clear
4:35 AM 48.2 °F - 39.2 °F 71% 30.24 in 10.0 mi North 6.9 mph - N/A   Clear
4:55 AM 46.4 °F 42.9 °F 37.4 °F 71% 30.24 in 10.0 mi North 6.9 mph - N/A   Clear
5:15 AM 46.4 °F 43.5 °F 37.4 °F 71% 30.24 in 10.0 mi North 5.8 mph - N/A   Clear
5:35 AM 44.6 °F 42.2 °F 39.2 °F 81% 30.23 in 10.0 mi North 4.6 mph - N/A   Clear
5:55 AM 44.6 °F 43.1 °F 39.2 °F 81% 30.24 in 10.0 mi North 3.5 mph - N/A   Clear
6:15 AM 44.6 °F 41.4 °F 39.2 °F 81% 30.24 in 10.0 mi NNE 5.8 mph - N/A   Clear
6:35 AM 44.6 °F 43.1 °F 39.2 °F 81% 30.24 in 10.0 mi NNE 3.5 mph - N/A   Clear
6:55 AM 44.6 °F 42.2 °F 39.2 °F 81% 30.24 in 10.0 mi North 4.6 mph - N/A   Clear
7:15 AM 44.6 °F 42.2 °F 39.2 °F 81% 30.25 in 10.0 mi NNE 4.6 mph - N/A   Clear
7:35 AM 44.6 °F 40.7 °F 39.2 °F 81% 30.25 in 10.0 mi North 6.9 mph - N/A   Clear
7:55 AM 44.6 °F 40.7 °F 39.2 °F 81% 30.25 in 10.0 mi North 6.9 mph - N/A   Clear
8:15 AM 44.6 °F 40.7 °F 39.2 °F 81% 30.26 in 10.0 mi NNE 6.9 mph - N/A   Clear
8:35 AM 44.6 °F 41.4 °F 41.0 °F 87% 30.27 in 10.0 mi North 5.8 mph - N/A   Clear
8:55 AM 48.2 °F - 42.8 °F 82% 30.28 in 10.0 mi North 5.8 mph - N/A   Clear
9:15 AM 53.6 °F - 44.6 °F 72% 30.28 in 10.0 mi North 6.9 mph - N/A   Clear
9:35 AM 57.2 °F - 44.6 °F 63% 30.29 in 10.0 mi NNE 5.8 mph - N/A   Clear
9:55 AM 59.0 °F - 44.6 °F 59% 30.29 in 10.0 mi NNE 3.5 mph - N/A   Clear
10:15 AM 60.8 °F - 46.4 °F 59% 30.30 in 10.0 mi NE 4.6 mph - N/A   Clear
10:35 AM 62.6 °F - 48.2 °F 59% 30.30 in 10.0 mi East 3.5 mph - N/A   Clear
10:55 AM 64.4 °F - 48.2 °F 56% 30.31 in 10.0 mi ESE 3.5 mph - N/A   Clear
11:15 AM 64.4 °F - 48.2 °F 56% 30.31 in 10.0 mi SSE 3.5 mph - N/A   Clear
11:35 AM 66.2 °F - 50.0 °F 56% 30.30 in 10.0 mi South 5.8 mph - N/A   Clear
11:55 AM 66.2 °F - 51.8 °F 60% 30.30 in 10.0 mi SSE 5.8 mph - N/A   Clear
12:15 PM 68.0 °F - 51.8 °F 56% 30.30 in 10.0 mi South 3.5 mph - N/A   Clear
12:35 PM 69.8 °F - 51.8 °F 53% 30.30 in 10.0 mi SSE 4.6 mph - N/A   Clear
12:55 PM 69.8 °F - 51.8 °F 53% 30.29 in 10.0 mi Calm Calm - N/A   Clear
1:15 PM 71.6 °F - 51.8 °F 50% 30.28 in 10.0 mi ESE 3.5 mph - N/A   Clear
1:35 PM 73.4 °F - 51.8 °F 47% 30.27 in 10.0 mi South 9.2 mph - N/A   Clear
1:55 PM 73.4 °F - 51.8 °F 47% 30.26 in 10.0 mi South 6.9 mph - N/A   Clear
2:15 PM 73.4 °F - 51.8 °F 47% 30.25 in 10.0 mi South 9.2 mph - N/A   Clear
2:35 PM 73.4 °F - 51.8 °F 47% 30.24 in 10.0 mi SE 5.8 mph - N/A   Clear
2:55 PM 73.4 °F - 48.2 °F 41% 30.23 in 10.0 mi Calm Calm - N/A   Clear
3:15 PM 75.2 °F - 48.2 °F 38% 30.22 in 10.0 mi SE 5.8 mph - N/A   Clear
3:35 PM 75.2 °F - 48.2 °F 38% 30.21 in 10.0 mi SSW 5.8 mph - N/A   Clear
3:55 PM 75.2 °F - 50.0 °F 41% 30.21 in 10.0 mi South 6.9 mph - N/A   Clear
4:15 PM 75.2 °F - 48.2 °F 38% 30.21 in 10.0 mi WSW 4.6 mph - N/A   Clear
4:35 PM 75.2 °F - 48.2 °F 38% 30.21 in 10.0 mi SSW 8.1 mph - N/A   Scattered Clouds
4:55 PM 75.2 °F - 48.2 °F 38% 30.20 in 10.0 mi NW 4.6 mph - N/A   Partly Cloudy
5:15 PM 75.2 °F - 48.2 °F 38% 30.20 in 10.0 mi South 6.9 mph - N/A   Clear
5:35 PM 75.2 °F - 48.2 °F 38% 30.20 in 10.0 mi SSW 9.2 mph - N/A   Clear
5:55 PM 75.2 °F - 48.2 °F 38% 30.21 in 10.0 mi ESE 3.5 mph - N/A   Clear
6:15 PM 73.4 °F - 51.8 °F 47% 30.20 in 10.0 mi East 12.7 mph - N/A   Mostly Cloudy
6:35 PM 73.4 °F - 51.8 °F 47% 30.21 in 10.0 mi ENE 13.8 mph - N/A   Mostly Cloudy
6:55 PM 71.6 °F - 51.8 °F 50% 30.21 in 10.0 mi ENE 11.5 mph - N/A   Mostly Cloudy
7:15 PM 69.8 °F - 51.8 °F 53% 30.22 in 10.0 mi NE 8.1 mph - N/A   Scattered Clouds
7:35 PM 66.2 °F - 51.8 °F 60% 30.22 in 10.0 mi ENE 6.9 mph - N/A   Clear
7:55 PM 64.4 °F - 51.8 °F 64% 30.23 in 10.0 mi NE 6.9 mph - N/A   Scattered Clouds
8:15 PM 62.6 °F - 51.8 °F 68% 30.23 in 10.0 mi ENE 5.8 mph - N/A   Scattered Clouds
8:35 PM 62.6 °F - 51.8 °F 68% 30.24 in 10.0 mi NE 4.6 mph - N/A   Partly Cloudy
8:55 PM 60.8 °F - 51.8 °F 72% 30.24 in 10.0 mi NE 5.8 mph - N/A   Clear
9:15 PM 57.2 °F - 51.8 °F 82% 30.24 in 10.0 mi NNE 5.8 mph - N/A   Clear
9:35 PM 57.2 °F - 51.8 °F 82% 30.24 in 10.0 mi NNE 6.9 mph - N/A   Clear
9:55 PM 55.4 °F - 51.8 °F 88% 30.25 in 10.0 mi NNE 6.9 mph - N/A   Clear
10:15 PM 55.4 °F - 51.8 °F 88% 30.25 in 10.0 mi North 5.8 mph - N/A   Clear
10:35 PM 55.4 °F - 50.0 °F 82% 30.25 in 10.0 mi NNE 5.8 mph - N/A   Clear
11:15 PM 53.6 °F - 48.2 °F 82% 30.26 in 10.0 mi Calm Calm - N/A   Clear
11:35 PM 53.6 °F - 48.2 °F 82% 30.26 in 10.0 mi North 8.1 mph - N/A   Clear
11:55 PM 53.6 °F - 48.2 °F 82% 30.26 in 10.0 mi North 6.9 mph - N/A   Clear